Grand Marais, MN

11:10 AM CDT on July 22, 2017 (GMT -0500)
Grand Marais

Weather History for KGNA - December, 2013

Change the Weather History Date:

Wednesday, December 4, 2013

  Actual Average (KCKC) Record (KCKC)
Temperature  
Mean Temperature 26 °F -  
Max Temperature 30 °F 25 °F 48 °F (2001)
Min Temperature 21 °F 13 °F -5 °F (2006)
Degree Days  
Heating Degree Days 40    
Moisture  
Dew Point 21 °F    
Average Humidity 79    
Maximum Humidity 89    
Minimum Humidity 71    
Precipitation  
Precipitation 0.49 in - - ()
Sea Level Pressure  
Sea Level Pressure 29.75 in    
Wind  
Wind Speed 15 mph (NE)    
Max Wind Speed 28 mph    
Max Gust Speed 41 mph    
Averages and records for this station are not official NWS values.
T = Trace of Precipitation, MM = Missing Value Source: NWS Daily Summary

Daily Weather History Graph

Daily Weather History Graph

Search for Another Location

Airport or City:

Trip Planner

Search our weather history database for the weather conditions in past years. The results will help you decide how hot, cold, wet, or windy it might be!

Date:

Astronomy

Dec. 04, 2013 Rise Set
Actual Time 7:33 AM CST 4:10 PM CST
Civil Twilight 6:57 AM CST 4:45 PM CST
Nautical Twilight 6:18 AM CST 5:24 PM CST
Astronomical Twilight 5:41 AM CST 6:01 PM CST
Moon 8:58 AM CST (12/4) 6:24 PM CST (12/4)
Length of Visible Light 9h 48m
Length of Day
8h 37m
Waxing Crescent, 4% of the Moon is Illuminated
Dec 4
Waxing Crescent
Dec 9
First Quarter
Dec 17
Full
Dec 25
Last Quarter
Jan 1
New

Hourly Weather History & Observations

Time (CST) Temp. Windchill Dew Point Humidity Pressure Visibility Wind Dir Wind Speed Gust Speed Precip Events Conditions
12:56 AM 21.9 °F 10.4 °F 14.0 °F 72% 30.01 in - NE 11.5 mph 23.0 mph 0.02 in   Unknown
1:56 AM 23.0 °F 13.1 °F 15.1 °F 72% 30.03 in - NNE 9.2 mph 18.4 mph N/A   Unknown
2:56 AM 23.0 °F 11.7 °F 15.1 °F 72% 30.01 in - NE 11.5 mph 23.0 mph N/A   Unknown
3:56 AM 23.0 °F 10.1 °F 15.1 °F 72% 29.99 in - NE 15.0 mph 25.3 mph N/A   Unknown
4:56 AM 24.1 °F 12.5 °F 16.0 °F 71% 29.99 in - NE 12.7 mph 21.9 mph N/A   Unknown
5:56 AM 24.1 °F 12.0 °F 17.1 °F 75% 29.97 in - NE 13.8 mph 23.0 mph N/A   Unknown
6:56 AM 24.1 °F 13.1 °F 18.0 °F 77% 29.98 in - NE 11.5 mph 21.9 mph N/A   Unknown
7:56 AM 25.0 °F 12.6 °F 19.0 °F 78% 29.94 in - NE 15.0 mph 27.6 mph N/A   Unknown
8:56 AM 26.1 °F 14.0 °F 21.0 °F 81% 29.94 in - ENE 15.0 mph 24.2 mph N/A   Unknown
9:56 AM 26.1 °F 14.0 °F 21.0 °F 81% 29.92 in - NE 15.0 mph 28.8 mph N/A   Unknown
10:56 AM 28.0 °F 14.6 °F 21.9 °F 78% 29.88 in - NE 20.7 mph 33.4 mph 0.01 in   Unknown
11:56 AM 28.0 °F 14.9 °F 21.9 °F 78% 29.84 in - NE 19.6 mph 28.8 mph N/A   Unknown
12:56 PM 28.9 °F 16.5 °F 23.0 °F 78% 29.79 in - NE 18.4 mph 34.5 mph 0.01 in   Unknown
1:56 PM 28.9 °F 15.8 °F 24.1 °F 82% 29.72 in - NE 20.7 mph 33.4 mph 0.02 in   Unknown
2:56 PM 30.0 °F 16.9 °F 25.0 °F 82% 29.66 in - ENE 21.9 mph 36.8 mph 0.04 in   Unknown
3:56 PM 28.9 °F 15.1 °F 25.0 °F 85% 29.65 in - ENE 23.0 mph 35.7 mph 0.05 in   Unknown
4:56 PM 28.9 °F 14.0 °F 26.1 °F 89% 29.61 in - ENE 27.6 mph 41.4 mph 0.08 in   Unknown
5:56 PM 28.9 °F 16.1 °F 25.0 °F 85% 29.57 in - ENE 19.6 mph 31.1 mph 0.09 in   Unknown
6:56 PM 28.9 °F 15.8 °F 25.0 °F 85% 29.52 in - ENE 20.7 mph 29.9 mph 0.06 in   Unknown
7:56 PM 28.9 °F 15.1 °F 24.1 °F 82% 29.46 in - ENE 23.0 mph 39.1 mph 0.06 in   Unknown
8:56 PM 28.9 °F 16.1 °F 24.1 °F 82% 29.40 in - ENE 19.6 mph 38.0 mph 0.03 in   Unknown
9:56 PM 30.0 °F 20.0 °F 25.0 °F 82% 29.39 in - NE 12.7 mph 24.2 mph 0.02 in   Unknown
10:56 PM 30.0 °F 22.4 °F 23.0 °F 75% 29.38 in - NNE 8.1 mph - N/A   Unknown
11:56 PM 27.0 °F 19.5 °F 19.9 °F 75% 29.37 in - Variable 6.9 mph - N/A   Unknown